Home   Weather   Solingen   Past weeks

Flag for Germany Past Weather in Solingen, North Rhine-Westphalia, Germany — Yesterday and Last 2 Weeks

Now
50 °F

Scattered showers. Broken clouds.


Feels Like: 47 °F
Forecast: 33 / 56 °F
Wind: 7 mph from Northwest

Location: Duesseldorf

Current Time: Apr 23, 2017 at 6:28:55 pm

Latest Report: Apr 23, 2017 at 5:50 pm


Visibility: N/A

Pressure: 30.24 "Hg

Humidity: 54%

Dew Point: 34 °F

Location of SolingenLocation

Past Weather in Solingen — Graph

°F

Solingen Temperature Yesterday

Maximum temperature yesterday: 52 °F (at 12:20 am)
Minimum temperature yesterday: 43 °F (at 5:50 am)
Average temperature yesterday: 47 °F

High & Low Weather Summary for the Past Weeks

 TemperatureHumidityPressure
High73 °F (Apr 9, 6:50 pm)100% (Apr 9, 2:20 am)30.63 "Hg (Apr 9, 2:20 am)
Low27 °F (Apr 20, 4:50 am)25% (Apr 9, 5:20 pm)29.92 "Hg (Apr 12, 5:20 pm)
Average47 °F68%30.20 "Hg
* Reported Apr 8 5:20 pm — Apr 23 5:20 pm, Solingen, Weather by CustomWeather, © 2017

Note: Actual official high and low records may vary slightly from our data, if they occured in-between our weather recording intervals... More about our weather records

Advertising

Solingen Weather History for the Previous 24 Hours

Scroll right to see more
 ConditionsComfort  
Time TempWeatherWind HumidityBarometerVisibility
5:20 pm
Sun, Apr 23
52 °FScattered showers. Scattered clouds.9 mph50%30.27 "HgN/A
4:50 pm50 °FScattered clouds.10 mph54%30.27 "HgN/A
4:20 pm48 °FScattered showers. Partly sunny.14 mph58%30.27 "HgN/A
3:50 pm48 °FScattered showers. Broken clouds.10 mph58%30.27 "HgN/A
3:20 pm52 °FScattered showers. Partly sunny.14 mph47%30.27 "HgN/A
2:50 pm52 °FScattered showers. Broken clouds.10 mph50%30.27 "HgN/A
2:20 pm50 °FScattered showers. Broken clouds.13 mph50%30.27 "HgN/A
1:50 pm50 °FScattered showers. Broken clouds.13 mph54%30.30 "HgN/A
1:20 pm48 °FSprinkles. Partly sunny.10 mph54%30.30 "HgN/A
12:50 pm48 °FPartly sunny.9 mph54%30.30 "HgN/A
12:20 pm48 °FPartly sunny.10 mph54%30.30 "HgN/A
11:50 am48 °FBroken clouds.10 mph50%30.30 "HgN/A
11:20 am46 °FBroken clouds.10 mph53%30.30 "HgN/A
10:50 am48 °FScattered clouds.8 mph54%30.30 "HgN/A
10:20 am46 °FScattered clouds.8 mph62%30.30 "HgN/A
9:50 am45 °FScattered clouds.12 mph66%30.30 "HgN/A
9:20 am43 °FScattered clouds.10 mph71%30.30 "HgN/A
8:50 am41 °FPartly sunny.9 mph76%30.30 "HgN/A
8:20 am41 °FPartly sunny.9 mph81%30.30 "HgN/A
7:50 am41 °FPartly sunny.7 mph76%30.27 "HgN/A
7:20 am41 °FPartly sunny.7 mph76%30.27 "HgN/A
6:50 am39 °FPartly sunny.7 mph81%30.27 "HgN/A
6:20 am39 °FPassing clouds.8 mph81%30.27 "HgN/A
5:50 am39 °FPassing clouds.6 mph81%30.27 "HgN/A
5:20 am39 °FPassing clouds.6 mph81%30.27 "HgN/A
4:50 am39 °FPassing clouds.7 mph81%30.27 "HgN/A
4:20 am39 °FPassing clouds.7 mph81%30.27 "HgN/A
3:50 am39 °FClear.7 mph81%30.27 "Hg10 mi
3:20 am39 °FPassing clouds.7 mph81%30.27 "HgN/A
2:50 am39 °FPassing clouds.6 mph81%30.27 "HgN/A
2:20 am41 °FPassing clouds.7 mph76%30.27 "HgN/A
1:50 am41 °FPassing clouds.7 mph76%30.27 "HgN/A
1:20 am43 °FPartly cloudy.7 mph71%30.27 "HgN/A
12:50 am43 °FPartly cloudy.9 mph71%30.27 "HgN/A
12:20 am43 °FPartly cloudy.5 mph71%30.27 "HgN/A
11:50 pm
Sat, Apr 22
43 °FPassing clouds.6 mph71%30.27 "HgN/A
11:20 pm43 °FPassing clouds.7 mph66%30.27 "HgN/A
10:50 pm43 °FClear.9 mph66%30.27 "Hg10 mi
10:20 pm45 °FClear.8 mph61%30.27 "Hg10 mi
9:50 pm45 °FPassing clouds.10 mph61%30.27 "HgN/A
9:20 pm46 °FPassing clouds.14 mph53%30.27 "HgN/A
8:50 pm46 °FPassing clouds.13 mph53%30.24 "HgN/A
8:20 pm46 °FPartly sunny.12 mph53%30.24 "HgN/A
7:50 pm48 °FScattered clouds.12 mph46%30.24 "HgN/A
7:20 pm48 °FScattered clouds.12 mph50%30.24 "HgN/A
6:50 pm50 °FScattered clouds.14 mph50%30.24 "HgN/A
6:20 pm50 °FBroken clouds.14 mph50%30.24 "HgN/A
Weather by CustomWeather, © 2017

See weather overviewHow to use our weather pages